SINOD-D 3

Last updated on Wed Oct 29 2025 00:03:53 GMT+0000 (Coordinated Universal Time)

1 40977U 15058P 25301.27302339 .00004266 00000+0 37278-3 0 9993 2 40977 64.7724 278.8384 0131194 149.8159 211.0598 14.91709860 80138
UTC large
Height (km)
Speed (km/s)
/
Latitude / Longitude
Inclination (degrees)
Orbital Period (minutes)
Azimuth
Elevation
Range (km)
Doppler Factor

Next 0 passes for location: London (51.5072 / 0.1276)

Sorry there are no passes over London.